Location: Ragusa
(36.9170°N, 14.7330°E)
Time: 09:17:37
(UTC+02:00)

ISS - Visible Passes

Search period start: 08 May 2021 00:00
Search period end: 18 May 2021 00:00
Orbit: 418 x 421 km, 51.6° (Epoch: 08 May)

Date Brightness Start Highest point End Pass type
(mag) Time Alt. Az. Time Alt. Az. Time Alt. Az.
09 May -0.6 05:16:13 10° N 05:17:45 12° NNE 05:19:17 10° NE visible
11 May -1.2 05:17:17 10° NNW 05:20:06 24° NNE 05:22:55 10° E visible
12 May -0.7 04:30:12 10° NNW 04:32:30 17° NNE 04:34:47 10° ENE visible
13 May -0.4 03:43:17 10° N 03:44:50 13° NNE 03:46:23 10° NE visible
13 May -3.2 05:18:50 10° NW 05:22:12 64° NE 05:25:32 10° ESE visible
14 May -2.1 04:31:32 10° NW 04:34:43 37° NE 04:37:52 10° ESE visible
14 May -3.4 21:13:09 10° SSW 21:16:19 41° SE 21:19:30 10° ENE visible
14 May -1.2 22:50:33 10° W 22:53:15 22° NNW 22:55:40 11° NNE visible
15 May -1.3 03:44:20 10° NNW 03:47:10 24° NNE 03:49:59 10° E visible
15 May -3.1 05:20:54 10° WNW 05:24:02 35° SW 05:27:09 10° SSE visible
15 May -2.0 22:02:36 10° W 22:05:41 33° NW 22:08:46 10° NNE visible
16 May -0.7 02:57:15 10° NNW 02:59:33 17° NNE 03:01:51 10° ENE visible
16 May -3.9 04:33:18 10° NW 04:36:40 68° SW 04:40:00 10° SE visible
16 May -3.0 21:14:53 10° WSW 21:18:10 56° NW 21:21:30 10° NE visible
16 May -0.3 22:54:18 10° NW 22:55:35 12° NNW 22:56:54 10° N visible
17 May -0.4 02:10:20 10° N 02:11:53 13° NNE 02:13:27 10° NE visible
17 May -3.4 03:45:53 10° NW 03:49:15 65° NE 03:52:35 10° ESE visible
17 May -3.8 20:27:24 10° SW 20:30:45 79° SE 20:34:06 10° NE visible
17 May -0.5 22:05:47 10° WNW 22:07:55 16° NNW 22:10:02 10° NNE visible
